TimeEST,TemperatureF,Dew PointF,Humidity,Sea Level PressureIn,VisibilityMPH,Wind Direction,Wind SpeedMPH,Gust SpeedMPH,PrecipitationIn,Events,Conditions,WindDirDegrees,DateUTC
12:58 AM,44.6,32.5,63,29.88,10.0,West,16.1,26.5,N/A,,Clear,280,2013-02-28 05:58:00
1:58 AM,42.3,33.3,70,29.88,10.0,WNW,13.8,18.4,N/A,,Scattered Clouds,290,2013-02-28 06:58:00
2:58 AM,40.6,32.7,73,29.87,10.0,West,12.7,-,N/A,,Partly Cloudy,280,2013-02-28 07:58:00
3:58 AM,38.8,32.0,76,29.87,10.0,West,9.2,-,N/A,,Clear,280,2013-02-28 08:58:00
4:58 AM,36.1,30.9,81,29.87,10.0,West,6.9,-,N/A,,Clear,270,2013-02-28 09:58:00
5:58 AM,34.7,30.7,85,29.87,10.0,West,5.8,-,N/A,,Clear,270,2013-02-28 10:58:00
6:58 AM,35.2,31.6,87,29.88,10.0,West,5.8,-,N/A,,Scattered Clouds,260,2013-02-28 11:58:00
7:59 AM,37.0,32.2,83,29.91,10.0,WSW,11.5,-,N/A,,Partly Cloudy,250,2013-02-28 12:59:00
8:58 AM,40.8,32.7,73,29.90,10.0,West,11.5,20.7,N/A,,Scattered Clouds,280,2013-02-28 13:58:00
9:11 AM,41.0,32.0,70,29.89,10.0,WNW,15.0,-,N/A,,Mostly Cloudy,290,2013-02-28 14:11:00
9:14 AM,41.0,32.0,70,29.89,10.0,West,15.0,-,N/A,,Mostly Cloudy,280,2013-02-28 14:14:00
9:58 AM,40.8,33.4,75,29.91,10.0,West,18.4,23.0,N/A,,Overcast,280,2013-02-28 14:58:00
10:55 AM,42.3,32.0,67,29.92,10.0,WNW,12.7,-,N/A,,Overcast,290,2013-02-28 15:55:00
11:40 AM,42.8,32.0,66,29.92,10.0,NW,12.7,17.3,N/A,,Overcast,310,2013-02-28 16:40:00
11:58 AM,43.2,30.9,62,29.94,10.0,WNW,10.4,-,N/A,,Overcast,300,2013-02-28 16:58:00
12:58 PM,47.1,29.3,50,29.92,10.0,West,15.0,23.0,N/A,,Overcast,280,2013-02-28 17:58:00
1:58 PM,46.4,27.3,47,29.93,10.0,West,16.1,24.2,N/A,,Overcast,280,2013-02-28 18:58:00
2:58 PM,46.9,26.2,44,29.94,10.0,WNW,18.4,28.8,N/A,,Overcast,300,2013-02-28 19:58:00
3:58 PM,45.1,25.5,46,29.96,10.0,WNW,18.4,24.2,N/A,,Mostly Cloudy,290,2013-02-28 20:58:00
3:59 PM,45.1,25.5,46,29.96,10.0,WNW,13.8,24.2,N/A,,Overcast,290,2013-02-28 20:59:00
4:58 PM,42.1,25.3,52,29.97,10.0,WNW,17.3,25.3,N/A,,Overcast,290,2013-02-28 21:58:00
5:58 PM,40.5,25.7,56,29.99,10.0,WNW,19.6,-,N/A,,Overcast,290,2013-02-28 22:58:00
6:58 PM,39.6,26.1,58,30.00,10.0,WNW,12.7,21.9,N/A,,Overcast,300,2013-02-28 23:58:00
7:58 PM,38.7,25.7,60,30.00,10.0,WNW,12.7,-,N/A,,Overcast,300,2013-03-01 00:58:00
8:58 PM,38.1,25.7,61,30.00,10.0,NW,11.5,23.0,N/A,,Overcast,310,2013-03-01 01:58:00
9:58 PM,37.8,26.2,63,30.02,10.0,NW,10.4,-,N/A,,Overcast,320,2013-03-01 02:58:00
10:58 PM,37.2,25.3,62,30.01,10.0,NNW,12.7,20.7,N/A,,Overcast,330,2013-03-01 03:58:00
11:58 PM,36.7,24.3,61,30.00,10.0,NW,11.5,-,N/A,,Overcast,310,2013-03-01 04:58:00